#timestamp,LO_Frequency,Hit,StdDev 
1457852415.6,286047003.9,N
1457852435.4,286047006.8,N
1457852455.2,286047008.3,Y
1457852475.1,286047007.0,P
1457852476.0,286047007.0,P
1457852495.8,286047004.6,N
1457852515.7,286047007.9,Y
1457852535.5,286047003.9,P
1457852555.3,286047003.5,P
1457852575.1,286047003.7,P
1457852595.9,286047004.2,Y
1457852615.7,286047000.5,P
1457852635.5,286046997.1,N
1457852655.4,286046997.7,N
1457852675.2,286046995.0,N
1457852695.0,286046997.9,N
1457852695.9,286046997.9,N
1457852715.8,286046996.6,N
1457852735.6,286046998.2,N
1457852755.4,286047001.2,N
1457852775.3,286047000.9,N
1457852795.1,286047000.7,N
1457852815.8,286046998.8,N
1457852835.7,286046996.0,N
1457852855.5,286046993.8,N
1457852875.3,286046992.2,Y
1457852895.2,286046997.8,P
1457852915.9,286046994.9,P
1457852935.7,286046996.4,N
1457852955.6,286046992.1,Y
1457852975.4,286046999.0,P
1457852995.2,286046995.9,P
1457853015.1,286046995.4,P
1457853016.0,286046995.4,Y
1457853035.8,286047001.1,P
1457853055.6,286046998.5,N
1457853075.5,286046999.5,N
1457853095.3,286047001.2,N
1457853115.1,286046999.4,N
1457853135.9,286046996.8,N
1457853155.7,286046999.1,N
1457853175.5,286046997.0,N
1457853195.4,286046999.6,N
1457853215.2,286046994.9,Y
1457853235.0,286046998.0,P
1457853235.9,286046998.0,P
1457853255.8,286046995.4,P
1457853275.6,286046993.3,Y
1457853295.4,286047000.6,P
1457853315.3,286046998.6,N
1457853335.1,286046998.9,N
1457853336.0,286046998.9,N
1457853355.8,286046994.9,Y
1457853375.7,286046996.8,P
1457853395.5,286046997.2,N
1457853415.3,286046994.0,P
1457853435.2,286046992.2,Y
1457853455.9,286046998.8,P
1457853475.7,286046998.4,N
1457853495.6,286046998.4,N
1457853515.4,286046997.2,Y
1457853535.2,286046995.3,P
1457853555.1,286046997.7,N
1457853556.0,286046997.7,N
1457853575.8,286046996.3,Y
1457853595.6,286046997.3,P
1457853615.5,286046995.1,P
1457853635.3,286046996.1,P
1457853655.1,286046991.6,Y
1457853675.9,286046997.6,P
1457853695.7,286046996.0,P
1457853715.5,286046992.4,P
1457853735.4,286046988.9,Y
1457853755.2,286046997.7,P
1457853775.0,286046995.4,P
1457853775.9,286046995.4,P
1457853795.8,286046996.1,Y
1457853815.6,286046999.4,P
1457853835.4,286046998.2,N
1457853855.3,286047002.2,N
1457853875.1,286046998.2,N
1457853876.0,286046998.2,N
1457853895.8,286047001.1,N
1457853915.7,286047001.3,N
1457853935.5,286047001.2,N
1457853955.3,286046999.7,N
1457853975.2,286046999.8,N
1457853995.9,286047002.1,N
1457854015.7,286047003.1,N
1457854035.5,286047005.8,N
1457854055.4,286047004.3,N
1457854075.2,286047004.1,N
1457854095.0,286047002.1,N
1457854095.9,286047002.1,N
1457854115.8,286046998.2,N
1457854135.6,286047001.2,N
1457854155.4,286046998.3,N
1457854175.3,286046998.3,N
1457854195.1,286046998.8,N
1457854196.0,286046998.8,N
1457854215.8,286047000.9,N
1457854235.7,286046998.3,N
1457854255.5,286046998.5,N
1457854275.3,286047000.2,N
1457854295.1,286047005.6,N
1457854315.9,286047004.5,N
1457854335.7,286047006.4,N
1457854355.6,286047008.6,Y
1457854375.4,286047013.8,P
1457854395.2,286047017.5,N
1457854415.0,286047016.5,N
1457854415.9,286047016.5,N
1457854435.8,286047020.4,Y
1457854455.6,286047006.9,P
1457854475.4,286047006.6,N
1457854495.3,286047009.8,P
1457854515.1,286047016.7,Y
1457854535.9,286047009.5,P
1457854555.7,286047010.9,P
1457854575.5,286047013.6,P
1457854595.4,286047012.5,Y
1457854615.2,286047005.1,P
1457854635.0,286047005.7,N
1457854635.9,286047005.7,N
1457854655.7,286047003.4,N
1457854675.6,286047005.0,N
1457854695.4,286047004.9,N
1457854715.2,286047003.6,N
1457854735.1,286047004.4,N
1457854736.0,286047004.4,N
1457854755.8,286047002.9,N
1457854775.6,286047008.3,Y
1457854795.5,286047004.2,P
1457854815.3,286047004.0,P
1457854835.1,286047004.0,P
1457854855.9,286047003.4,Y
1457854875.7,286047002.4,P
1457854895.5,286047000.1,N
1457854915.4,286046999.8,N
1457854935.2,286046997.6,N
1457854955.0,286046995.2,N
1457854955.9,286046995.2,N
1457854975.8,286046994.8,N
1457854995.6,286046996.4,N
1457855015.4,286046992.1,N
1457855035.3,286046995.9,N
1457855055.1,286046996.6,N
1457855056.0,286046996.6,N
1457855075.8,286046997.4,N
1457855095.7,286046997.3,N
1457855115.5,286046999.1,N
1457855135.3,286047000.7,N
1457855155.2,286047002.0,N
1457855175.9,286047005.2,N
1457855195.7,286047003.8,N
1457855215.5,286047005.1,N
1457855235.4,286047003.2,N
1457855255.2,286047003.4,N
1457855275.0,286047003.7,N
1457855275.9,286047003.7,N
1457855295.8,286047005.0,N
1457855315.6,286047007.8,N
1457855335.4,286047011.7,N
1457855355.3,286047012.1,N
1457855375.1,286047011.9,N
1457855376.0,286047011.9,N
1457855395.8,286047011.2,N
1457855415.7,286047013.1,N
1457855435.5,286047013.7,N
1457855455.3,286047012.0,N
1457855475.2,286047007.8,N
1457855495.9,286047009.7,N
1457855515.7,286047007.8,N
1457855535.6,286047010.1,N
1457855555.4,286047007.8,N
1457855575.2,286047007.8,N
1457855595.0,286047008.9,N
1457855596.0,286047008.9,N
1457855615.8,286047009.0,N
1457855635.6,286047005.3,N
1457855655.4,286047003.8,N
1457855675.3,286047005.3,N
1457855695.1,286047001.8,N
1457855715.8,286047002.2,N
1457855735.7,286047003.6,N
1457855755.5,286047002.5,N
1457855775.3,286046999.7,N
1457855795.2,286046999.1,N
1457855815.0,286046997.4,N
1457855815.9,286046997.4,N
1457855835.7,286046993.3,N
1457855855.6,286046993.9,N
1457855875.4,286046992.9,N
1457855895.2,286046991.7,N
1457855915.1,286046998.1,N
1457855916.0,286046998.1,N
1457855935.8,286047000.9,N
1457855955.6,286046999.3,N
1457855975.5,286047001.1,N
1457855995.3,286047000.6,N
